Time,TemperatureF,DewpointF,PressureIn,WindDirection,WindDirectionDegrees,WindSpeedMPH,WindSpeedGustMPH,Humidity,HourlyPrecipIn,Conditions,Clouds,dailyrainin,SoftwareType,DateUTC
2013-01-29 00:00:00,64.9,58.2,29.78,South,178,1.0,2.0,79,0.00,,,0.00,VWS V14.01,2013-01-29 06:00:00,
2013-01-29 00:05:00,64.9,58.2,29.77,SSW,209,6.0,6.0,79,0.00,,,0.00,VWS V14.01,2013-01-29 06:05:00,
2013-01-29 00:10:00,65.0,58.3,29.77,WSW,237,2.0,11.0,79,0.00,,,0.00,VWS V14.01,2013-01-29 06:10:00,
2013-01-29 00:16:00,65.0,58.3,29.77,SW,218,3.0,11.0,79,0.00,,,0.00,VWS V14.01,2013-01-29 06:16:00,
2013-01-29 00:21:00,65.0,58.3,29.77,SW,221,0.0,11.0,79,0.00,,,0.00,VWS V14.01,2013-01-29 06:21:00,
2013-01-29 00:26:00,65.0,58.3,29.77,SSE,152,0.0,11.0,79,0.00,,,0.00,VWS V14.01,2013-01-29 06:26:00,
2013-01-29 00:30:00,64.9,58.2,29.77,South,177,0.0,11.0,79,0.00,,,0.00,VWS V14.01,2013-01-29 06:30:00,
2013-01-29 00:31:00,65.0,58.3,29.77,SW,234,2.0,4.0,79,0.00,,,0.00,VWS V14.01,2013-01-29 06:31:00,
2013-01-29 00:36:00,64.9,58.2,29.76,SE,125,2.0,7.0,79,0.00,,,0.00,VWS V14.01,2013-01-29 06:36:00,
2013-01-29 00:41:00,64.8,58.1,29.76,SSW,198,5.0,7.0,79,0.00,,,0.00,VWS V14.01,2013-01-29 06:41:00,
2013-01-29 00:46:00,64.8,58.5,29.76,WSW,248,5.0,7.0,80,0.00,,,0.00,VWS V14.01,2013-01-29 06:46:00,
2013-01-29 00:51:00,64.8,58.5,29.76,South,186,2.0,7.0,80,0.00,,,0.00,VWS V14.01,2013-01-29 06:51:00,
2013-01-29 00:56:00,64.9,58.6,29.76,SSE,167,0.0,7.0,80,0.00,,,0.00,VWS V14.01,2013-01-29 06:56:00,
2013-01-29 01:00:00,64.9,58.6,29.75,SE,146,0.0,8.0,80,0.00,,,0.00,VWS V14.01,2013-01-29 07:00:00,
2013-01-29 01:01:00,64.9,58.6,29.75,South,183,5.0,5.0,80,0.00,,,0.00,VWS V14.01,2013-01-29 07:01:00,
2013-01-29 01:06:00,64.8,58.5,29.75,South,181,0.0,5.0,80,0.00,,,0.00,VWS V14.01,2013-01-29 07:06:00,
2013-01-29 01:11:00,64.6,58.3,29.75,ESE,117,6.0,6.0,80,0.00,,,0.00,VWS V14.01,2013-01-29 07:11:00,
2013-01-29 01:16:00,64.5,58.2,29.75,South,180,2.0,7.0,80,0.00,,,0.00,VWS V14.01,2013-01-29 07:16:00,
2013-01-29 01:21:00,64.6,58.3,29.75,SW,232,4.0,7.0,80,0.00,,,0.00,VWS V14.01,2013-01-29 07:21:00,
2013-01-29 01:26:00,64.6,58.7,29.75,SSW,213,0.0,7.0,81,0.00,,,0.00,VWS V14.01,2013-01-29 07:26:00,
2013-01-29 01:30:00,64.6,58.3,29.74,SW,218,6.0,7.0,80,0.00,,,0.00,VWS V14.01,2013-01-29 07:30:00,
2013-01-29 01:31:00,64.6,58.3,29.74,SSE,157,0.0,6.0,80,0.00,,,0.00,VWS V14.01,2013-01-29 07:31:00,
2013-01-29 01:36:00,64.5,58.2,29.74,South,190,0.0,6.0,80,0.00,,,0.00,VWS V14.01,2013-01-29 07:36:00,
2013-01-29 01:41:00,64.6,58.7,29.74,SW,214,0.0,8.0,81,0.00,,,0.00,VWS V14.01,2013-01-29 07:41:00,
2013-01-29 01:46:00,64.7,58.7,29.74,SSW,202,0.0,8.0,81,0.00,,,0.00,VWS V14.01,2013-01-29 07:46:00,
2013-01-29 01:51:00,64.7,58.7,29.74,SSW,202,4.0,11.0,81,0.00,,,0.00,VWS V14.01,2013-01-29 07:51:00,
2013-01-29 01:56:00,64.8,58.8,29.74,South,183,1.0,11.0,81,0.00,,,0.00,VWS V14.01,2013-01-29 07:56:00,
2013-01-29 02:00:00,64.8,58.8,29.74,ENE,59,2.0,11.0,81,0.00,,,0.00,VWS V14.01,2013-01-29 08:00:00,
2013-01-29 02:01:00,64.8,58.8,29.74,ENE,60,0.0,2.0,81,0.00,,,0.00,VWS V14.01,2013-01-29 08:01:00,
2013-01-29 02:06:00,64.8,58.8,29.74,SW,233,5.0,8.0,81,0.00,,,0.00,VWS V14.01,2013-01-29 08:06:00,
2013-01-29 02:11:00,64.9,58.9,29.74,SSW,213,0.0,8.0,81,0.00,,,0.00,VWS V14.01,2013-01-29 08:11:00,
2013-01-29 02:16:00,64.9,58.6,29.74,SSW,211,1.0,8.0,80,0.00,,,0.00,VWS V14.01,2013-01-29 08:16:00,
2013-01-29 02:21:00,64.8,58.5,29.74,SSE,165,0.0,8.0,80,0.00,,,0.00,VWS V14.01,2013-01-29 08:21:00,
2013-01-29 02:26:00,64.8,58.8,29.74,SW,214,2.0,9.0,81,0.00,,,0.00,VWS V14.01,2013-01-29 08:26:00,
2013-01-29 02:30:00,64.8,58.8,29.73,SSW,210,6.0,9.0,81,0.00,,,0.00,VWS V14.01,2013-01-29 08:30:00,
2013-01-29 02:31:00,64.9,58.9,29.73,SE,145,2.0,6.0,81,0.00,,,0.00,VWS V14.01,2013-01-29 08:31:00,
2013-01-29 02:36:00,64.9,58.6,29.73,South,189,2.0,6.0,80,0.00,,,0.00,VWS V14.01,2013-01-29 08:36:00,
2013-01-29 02:41:00,64.9,58.6,29.73,South,171,0.0,8.0,80,0.00,,,0.00,VWS V14.01,2013-01-29 08:41:00,
2013-01-29 02:46:00,64.9,58.6,29.73,SSW,208,3.0,8.0,80,0.00,,,0.00,VWS V14.01,2013-01-29 08:46:00,
2013-01-29 02:51:00,64.9,58.6,29.72,SSW,194,3.0,8.0,80,0.00,,,0.00,VWS V14.01,2013-01-29 08:51:00,
2013-01-29 02:56:00,64.8,58.5,29.72,West,279,4.0,8.0,80,0.00,,,0.00,VWS V14.01,2013-01-29 08:56:00,
2013-01-29 03:00:00,64.9,58.6,29.72,SSW,202,1.0,8.0,80,0.00,,,0.00,VWS V14.01,2013-01-29 09:00:00,
2013-01-29 03:01:00,64.9,58.9,29.72,South,188,7.0,7.0,81,0.00,,,0.00,VWS V14.01,2013-01-29 09:01:00,
2013-01-29 03:06:00,65.0,58.7,29.72,SSW,209,6.0,11.0,80,0.00,,,0.00,VWS V14.01,2013-01-29 09:06:00,
2013-01-29 03:11:00,65.2,58.9,29.72,SSW,204,0.0,11.0,80,0.00,,,0.00,VWS V14.01,2013-01-29 09:11:00,
2013-01-29 03:16:00,65.2,58.9,29.72,South,185,0.0,11.0,80,0.00,,,0.00,VWS V14.01,2013-01-29 09:16:00,
2013-01-29 03:21:00,65.1,58.4,29.72,WSW,245,0.0,11.0,79,0.00,,,0.00,VWS V14.01,2013-01-29 09:21:00,
2013-01-29 03:26:00,65.0,58.7,29.71,SSW,192,4.0,11.0,80,0.00,,,0.00,VWS V14.01,2013-01-29 09:26:00,
2013-01-29 03:30:00,65.0,58.7,29.71,West,264,0.0,11.0,80,0.00,,,0.00,VWS V14.01,2013-01-29 09:30:00,
2013-01-29 03:31:00,65.0,58.7,29.71,SW,222,2.0,4.0,80,0.00,,,0.00,VWS V14.01,2013-01-29 09:31:00,
2013-01-29 03:36:00,65.1,58.8,29.71,SW,232,3.0,5.0,80,0.00,,,0.00,VWS V14.01,2013-01-29 09:36:00,
2013-01-29 03:41:00,65.2,58.5,29.71,SSW,212,0.0,6.0,79,0.00,,,0.00,VWS V14.01,2013-01-29 09:41:00,
2013-01-29 03:46:00,65.2,58.5,29.71,SSW,209,3.0,7.0,79,0.00,,,0.00,VWS V14.01,2013-01-29 09:46:00,
2013-01-29 03:51:00,65.1,58.4,29.70,SSE,153,2.0,7.0,79,0.00,,,0.00,VWS V14.01,2013-01-29 09:51:00,
2013-01-29 03:56:00,65.2,58.5,29.70,South,176,1.0,7.0,79,0.00,,,0.00,VWS V14.01,2013-01-29 09:56:00,
2013-01-29 04:00:00,65.2,58.5,29.70,SW,219,5.0,7.0,79,0.00,,,0.00,VWS V14.01,2013-01-29 10:00:00,
2013-01-29 04:02:00,65.2,58.5,29.70,WSW,239,2.0,6.0,79,0.00,,,0.00,VWS V14.01,2013-01-29 10:02:00,
2013-01-29 04:07:00,65.3,58.6,29.70,SSW,205,6.0,13.0,79,0.00,,,0.00,VWS V14.01,2013-01-29 10:07:00,
2013-01-29 04:12:00,65.4,58.7,29.69,SW,219,2.0,13.0,79,0.00,,,0.00,VWS V14.01,2013-01-29 10:12:00,
2013-01-29 04:17:00,65.5,58.8,29.70,SSW,201,5.0,13.0,79,0.00,,,0.00,VWS V14.01,2013-01-29 10:17:00,
2013-01-29 04:22:00,65.4,58.7,29.70,SW,229,2.0,13.0,79,0.00,,,0.00,VWS V14.01,2013-01-29 10:22:00,
2013-01-29 04:27:00,65.4,58.7,29.69,WSW,239,1.0,13.0,79,0.00,,,0.00,VWS V14.01,2013-01-29 10:27:00,
2013-01-29 04:30:00,65.4,58.7,29.69,SSW,213,5.0,13.0,79,0.00,,,0.00,VWS V14.01,2013-01-29 10:30:00,
2013-01-29 04:32:00,65.5,58.8,29.69,SW,227,2.0,7.0,79,0.00,,,0.00,VWS V14.01,2013-01-29 10:32:00,
2013-01-29 04:37:00,65.6,58.9,29.69,SW,234,5.0,8.0,79,0.00,,,0.00,VWS V14.01,2013-01-29 10:37:00,
2013-01-29 04:42:00,65.6,58.6,29.69,SE,136,4.0,8.0,78,0.00,,,0.00,VWS V14.01,2013-01-29 10:42:00,
2013-01-29 04:47:00,65.7,58.7,29.69,South,185,2.0,8.0,78,0.00,,,0.00,VWS V14.01,2013-01-29 10:47:00,
2013-01-29 04:52:00,65.7,58.7,29.69,SW,220,0.0,11.0,78,0.00,,,0.00,VWS V14.01,2013-01-29 10:52:00,
2013-01-29 04:57:00,65.7,59.0,29.70,SSW,203,6.0,11.0,79,0.00,,,0.00,VWS V14.01,2013-01-29 10:57:00,
2013-01-29 05:00:00,65.6,58.9,29.71,WSW,252,2.0,11.0,79,0.00,,,0.00,VWS V14.01,2013-01-29 11:00:00,
2013-01-29 05:02:00,65.6,58.9,29.71,SSW,213,6.0,7.0,79,0.00,,,0.00,VWS V14.01,2013-01-29 11:02:00,
2013-01-29 05:07:00,65.4,59.1,29.71,WSW,244,5.0,10.0,80,0.00,,,0.00,VWS V14.01,2013-01-29 11:07:00,
2013-01-29 05:12:00,65.3,59.0,29.71,South,186,3.0,10.0,80,0.00,,,0.00,VWS V14.01,2013-01-29 11:12:00,
2013-01-29 05:17:00,65.3,59.0,29.72,WSW,251,4.0,10.0,80,0.00,,,0.00,VWS V14.01,2013-01-29 11:17:00,
2013-01-29 05:22:00,65.4,59.1,29.71,WSW,253,5.0,10.0,80,0.00,,,0.00,VWS V14.01,2013-01-29 11:22:00,
2013-01-29 05:27:00,65.5,59.2,29.71,WSW,245,5.0,10.0,80,0.00,,,0.00,VWS V14.01,2013-01-29 11:27:00,
2013-01-29 05:30:00,65.6,58.9,29.71,SW,234,3.0,10.0,79,0.00,,,0.00,VWS V14.01,2013-01-29 11:30:00,
2013-01-29 05:32:00,65.8,59.1,29.71,SW,236,4.0,15.0,79,0.01,,,0.01,VWS V14.01,2013-01-29 11:32:00,
2013-01-29 05:37:00,66.1,59.4,29.71,SW,225,3.0,15.0,79,0.01,,,0.01,VWS V14.01,2013-01-29 11:37:00,
2013-01-29 05:42:00,65.9,59.2,29.71,WSW,241,2.0,15.0,79,0.01,,,0.01,VWS V14.01,2013-01-29 11:42:00,
2013-01-29 05:47:00,65.4,59.4,29.69,SSW,200,0.0,15.0,81,0.01,,,0.01,VWS V14.01,2013-01-29 11:47:00,
2013-01-29 05:52:00,65.0,59.4,29.69,South,184,2.0,15.0,82,0.01,,,0.01,VWS V14.01,2013-01-29 11:52:00,
2013-01-29 05:57:00,64.5,59.2,29.69,South,183,0.0,15.0,83,0.01,,,0.01,VWS V14.01,2013-01-29 11:57:00,
2013-01-29 06:00:00,64.3,59.0,29.69,South,187,0.0,15.0,83,0.01,,,0.01,VWS V14.01,2013-01-29 12:00:00,
2013-01-29 06:02:00,64.2,59.3,29.69,South,188,2.0,2.0,84,0.01,,,0.01,VWS V14.01,2013-01-29 12:02:00,
2013-01-29 06:07:00,63.9,59.0,29.70,South,187,0.0,2.0,84,0.01,,,0.01,VWS V14.01,2013-01-29 12:07:00,
2013-01-29 06:12:00,63.6,58.7,29.69,South,187,0.0,2.0,84,0.01,,,0.01,VWS V14.01,2013-01-29 12:12:00,
2013-01-29 06:17:00,63.4,58.8,29.69,SE,139,0.0,4.0,85,0.01,,,0.01,VWS V14.01,2013-01-29 12:17:00,
2013-01-29 06:22:00,63.2,58.6,29.68,SE,140,0.0,4.0,85,0.01,,,0.01,VWS V14.01,2013-01-29 12:22:00,
2013-01-29 06:27:00,63.2,58.6,29.68,SSW,205,0.0,8.0,85,0.01,,,0.01,VWS V14.01,2013-01-29 12:27:00,
2013-01-29 06:30:00,63.2,58.6,29.68,SSW,205,0.0,8.0,85,0.01,,,0.01,VWS V14.01,2013-01-29 12:30:00,
2013-01-29 06:32:00,63.1,58.5,29.68,SSW,205,0.0,0.0,85,0.01,,,0.01,VWS V14.01,2013-01-29 12:32:00,
2013-01-29 06:37:00,63.1,58.2,29.68,SSW,205,0.0,2.0,84,0.01,,,0.01,VWS V14.01,2013-01-29 12:37:00,
2013-01-29 06:42:00,63.0,58.1,29.68,SSW,205,0.0,2.0,84,0.01,,,0.01,VWS V14.01,2013-01-29 12:42:00,
2013-01-29 06:47:00,63.0,58.4,29.69,SSW,205,0.0,3.0,85,0.01,,,0.01,VWS V14.01,2013-01-29 12:47:00,
2013-01-29 06:52:00,63.0,58.1,29.68,SSW,205,2.0,3.0,84,0.01,,,0.01,VWS V14.01,2013-01-29 12:52:00,
2013-01-29 06:57:00,63.0,58.1,29.69,SW,229,0.0,3.0,84,0.01,,,0.01,VWS V14.01,2013-01-29 12:57:00,
2013-01-29 07:00:00,62.9,58.0,29.69,SW,229,0.0,3.0,84,0.01,,,0.01,VWS V14.01,2013-01-29 13:00:00,
2013-01-29 07:02:00,62.9,58.0,29.69,SW,229,1.0,3.0,84,0.00,,,0.01,VWS V14.01,2013-01-29 13:02:00,
2013-01-29 07:07:00,62.9,58.3,29.68,SSW,198,0.0,3.0,85,0.00,,,0.01,VWS V14.01,2013-01-29 13:07:00,
2013-01-29 07:12:00,62.9,58.3,29.68,South,182,0.0,5.0,85,0.00,,,0.01,VWS V14.01,2013-01-29 13:12:00,
2013-01-29 07:17:00,62.8,57.9,29.68,South,182,0.0,5.0,84,0.00,,,0.01,VWS V14.01,2013-01-29 13:17:00,
2013-01-29 07:22:00,62.7,58.1,29.68,South,182,0.0,5.0,85,0.00,,,0.01,VWS V14.01,2013-01-29 13:22:00,
2013-01-29 07:27:00,62.7,58.1,29.68,South,182,0.0,5.0,85,0.00,,,0.01,VWS V14.01,2013-01-29 13:27:00,
2013-01-29 07:30:00,62.7,58.1,29.68,South,182,0.0,5.0,85,0.00,,,0.01,VWS V14.01,2013-01-29 13:30:00,
2013-01-29 07:32:00,62.7,58.1,29.68,South,182,0.0,1.0,85,0.00,,,0.01,VWS V14.01,2013-01-29 13:32:00,
2013-01-29 07:37:00,62.6,58.0,29.67,South,182,0.0,1.0,85,0.00,,,0.01,VWS V14.01,2013-01-29 13:37:00,
2013-01-29 07:42:00,62.6,58.0,29.67,South,182,0.0,1.0,85,0.00,,,0.01,VWS V14.01,2013-01-29 13:42:00,
2013-01-29 07:47:00,62.7,58.1,29.67,South,184,0.0,5.0,85,0.00,,,0.01,VWS V14.01,2013-01-29 13:47:00,
2013-01-29 07:52:00,62.8,58.2,29.67,South,176,0.0,5.0,85,0.00,,,0.01,VWS V14.01,2013-01-29 13:52:00,
2013-01-29 07:57:00,62.9,58.3,29.66,South,176,1.0,5.0,85,0.00,,,0.01,VWS V14.01,2013-01-29 13:57:00,
2013-01-29 08:00:00,62.9,58.0,29.66,South,176,0.0,5.0,84,0.00,,,0.01,VWS V14.01,2013-01-29 14:00:00,
2013-01-29 08:02:00,63.0,58.1,29.66,South,176,0.0,2.0,84,0.00,,,0.01,VWS V14.01,2013-01-29 14:02:00,
2013-01-29 08:07:00,63.0,58.1,29.65,South,176,0.0,4.0,84,0.00,,,0.01,VWS V14.01,2013-01-29 14:07:00,
2013-01-29 08:12:00,63.1,58.5,29.66,South,177,2.0,4.0,85,0.00,,,0.01,VWS V14.01,2013-01-29 14:12:00,
2013-01-29 08:17:00,63.2,58.3,29.66,South,177,0.0,4.0,84,0.00,,,0.01,VWS V14.01,2013-01-29 14:17:00,
2013-01-29 08:22:00,63.3,58.4,29.66,South,177,0.0,4.0,84,0.00,,,0.01,VWS V14.01,2013-01-29 14:22:00,
2013-01-29 08:27:00,63.5,58.6,29.66,SSE,163,2.0,4.0,84,0.00,,,0.01,VWS V14.01,2013-01-29 14:27:00,
2013-01-29 08:30:00,63.6,58.7,29.66,South,185,1.0,4.0,84,0.00,,,0.01,VWS V14.01,2013-01-29 14:30:00,
2013-01-29 08:32:00,63.6,58.7,29.66,South,185,0.0,1.0,84,0.00,,,0.01,VWS V14.01,2013-01-29 14:32:00,
2013-01-29 08:37:00,63.8,58.9,29.66,South,191,0.0,6.0,84,0.00,,,0.01,VWS V14.01,2013-01-29 14:37:00,
2013-01-29 08:42:00,64.0,58.7,29.66,WSW,253,2.0,6.0,83,0.00,,,0.01,VWS V14.01,2013-01-29 14:42:00,
2013-01-29 08:47:00,64.1,58.8,29.66,SSE,165,2.0,6.0,83,0.00,,,0.01,VWS V14.01,2013-01-29 14:47:00,
2013-01-29 08:52:00,64.3,59.0,29.66,SSW,207,0.0,6.0,83,0.00,,,0.01,VWS V14.01,2013-01-29 14:52:00,
2013-01-29 08:58:00,64.4,59.1,29.66,South,173,0.0,6.0,83,0.00,,,0.01,VWS V14.01,2013-01-29 14:58:00,
2013-01-29 09:00:00,64.5,58.9,29.66,South,187,3.0,6.0,82,0.00,,,0.01,VWS V14.01,2013-01-29 15:00:00,
2013-01-29 09:03:00,64.6,59.0,29.66,SSW,206,3.0,6.0,82,0.00,,,0.01,VWS V14.01,2013-01-29 15:03:00,
2013-01-29 09:08:00,64.8,59.2,29.66,SSW,200,3.0,6.0,82,0.00,,,0.01,VWS V14.01,2013-01-29 15:08:00,
2013-01-29 09:13:00,65.0,59.4,29.66,SSW,213,0.0,6.0,82,0.00,,,0.01,VWS V14.01,2013-01-29 15:13:00,
2013-01-29 09:18:00,65.1,59.1,29.66,South,175,0.0,6.0,81,0.00,,,0.01,VWS V14.01,2013-01-29 15:18:00,
2013-01-29 09:23:00,65.4,59.4,29.65,South,177,0.0,6.0,81,0.00,,,0.01,VWS V14.01,2013-01-29 15:23:00,
2013-01-29 09:28:00,65.6,59.6,29.65,SSW,194,3.0,6.0,81,0.00,,,0.01,VWS V14.01,2013-01-29 15:28:00,
2013-01-29 09:30:00,65.7,59.4,29.65,SW,236,6.0,6.0,80,0.00,,,0.01,VWS V14.01,2013-01-29 15:30:00,
2013-01-29 09:33:00,65.8,59.5,29.65,South,175,2.0,8.0,80,0.00,,,0.01,VWS V14.01,2013-01-29 15:33:00,
2013-01-29 09:38:00,66.0,59.7,29.65,SSW,200,0.0,8.0,80,0.00,,,0.01,VWS V14.01,2013-01-29 15:38:00,
2013-01-29 09:43:00,66.2,59.5,29.64,SW,219,2.0,8.0,79,0.00,,,0.01,VWS V14.01,2013-01-29 15:43:00,
2013-01-29 09:48:00,66.4,59.7,29.64,SW,224,5.0,8.0,79,0.00,,,0.01,VWS V14.01,2013-01-29 15:48:00,
2013-01-29 09:53:00,66.6,59.5,29.63,SW,229,0.0,10.0,78,0.00,,,0.01,VWS V14.01,2013-01-29 15:53:00,
2013-01-29 09:58:00,66.7,59.6,29.63,SW,224,1.0,10.0,78,0.00,,,0.01,VWS V14.01,2013-01-29 15:58:00,
2013-01-29 10:00:00,66.8,59.7,29.63,South,181,0.0,10.0,78,0.00,,,0.01,VWS V14.01,2013-01-29 16:00:00,
2013-01-29 10:03:00,66.8,59.7,29.63,SW,228,2.0,7.0,78,0.00,,,0.01,VWS V14.01,2013-01-29 16:03:00,
2013-01-29 10:08:00,67.0,59.6,29.63,West,267,1.0,10.0,77,0.00,,,0.01,VWS V14.01,2013-01-29 16:08:00,
2013-01-29 10:13:00,67.2,59.8,29.63,SSW,198,5.0,10.0,77,0.00,,,0.01,VWS V14.01,2013-01-29 16:13:00,
2013-01-29 10:18:00,67.4,60.0,29.62,SSW,211,4.0,10.0,77,0.00,,,0.01,VWS V14.01,2013-01-29 16:18:00,
2013-01-29 10:23:00,67.6,60.1,29.62,WSW,238,4.0,10.0,77,0.00,,,0.01,VWS V14.01,2013-01-29 16:23:00,
2013-01-29 10:28:00,67.9,60.1,29.62,West,281,7.0,11.0,76,0.00,,,0.01,VWS V14.01,2013-01-29 16:28:00,
2013-01-29 10:30:00,67.9,60.1,29.62,SSW,192,3.0,11.0,76,0.00,,,0.01,VWS V14.01,2013-01-29 16:30:00,
2013-01-29 10:33:00,68.0,60.2,29.62,WSW,249,3.0,17.0,76,0.00,,,0.01,VWS V14.01,2013-01-29 16:33:00,
2013-01-29 10:38:00,68.1,59.9,29.62,SSW,193,5.0,17.0,75,0.00,,,0.01,VWS V14.01,2013-01-29 16:38:00,
2013-01-29 10:43:00,68.1,59.9,29.62,SW,222,3.0,17.0,75,0.00,,,0.01,VWS V14.01,2013-01-29 16:43:00,
2013-01-29 10:48:00,68.2,60.0,29.62,WSW,240,5.0,17.0,75,0.00,,,0.01,VWS V14.01,2013-01-29 16:48:00,
2013-01-29 10:53:00,68.3,60.1,29.62,WSW,237,6.0,17.0,75,0.00,,,0.01,VWS V14.01,2013-01-29 16:53:00,
2013-01-29 10:58:00,68.3,60.1,29.62,SW,221,4.0,17.0,75,0.00,,,0.01,VWS V14.01,2013-01-29 16:58:00,
2013-01-29 11:00:00,68.3,60.1,29.62,South,190,3.0,17.0,75,0.00,,,0.01,VWS V14.01,2013-01-29 17:00:00,
2013-01-29 11:03:00,68.3,60.1,29.62,WSW,240,2.0,6.0,75,0.00,,,0.01,VWS V14.01,2013-01-29 17:03:00,
2013-01-29 11:08:00,68.5,60.3,29.62,WSW,244,0.0,6.0,75,0.00,,,0.01,VWS V14.01,2013-01-29 17:08:00,
2013-01-29 11:13:00,68.5,60.3,29.61,SW,231,0.0,8.0,75,0.00,,,0.01,VWS V14.01,2013-01-29 17:13:00,
2013-01-29 11:18:00,68.6,60.0,29.61,SSW,198,6.0,8.0,74,0.00,,,0.01,VWS V14.01,2013-01-29 17:18:00,
2013-01-29 11:23:00,68.6,60.0,29.61,SW,229,5.0,8.0,74,0.00,,,0.01,VWS V14.01,2013-01-29 17:23:00,
2013-01-29 11:28:00,68.5,59.9,29.61,SSW,209,0.0,11.0,74,0.00,,,0.01,VWS V14.01,2013-01-29 17:28:00,
2013-01-29 11:30:00,68.5,59.9,29.60,West,269,2.0,11.0,74,0.00,,,0.01,VWS V14.01,2013-01-29 17:30:00,
2013-01-29 11:33:00,68.5,59.9,29.60,SSE,167,0.0,4.0,74,0.00,,,0.01,VWS V14.01,2013-01-29 17:33:00,
2013-01-29 11:38:00,68.6,60.4,29.59,South,178,6.0,6.0,75,0.00,,,0.01,VWS V14.01,2013-01-29 17:38:00,
2013-01-29 11:43:00,68.8,60.2,29.58,South,188,0.0,6.0,74,0.00,,,0.01,VWS V14.01,2013-01-29 17:43:00,
2013-01-29 11:48:00,69.0,60.4,29.58,SSW,200,0.0,6.0,74,0.00,,,0.01,VWS V14.01,2013-01-29 17:48:00,
2013-01-29 11:53:00,69.2,60.2,29.57,SSW,208,3.0,8.0,73,0.00,,,0.01,VWS V14.01,2013-01-29 17:53:00,
2013-01-29 11:58:00,69.3,60.3,29.57,SSW,209,0.0,8.0,73,0.00,,,0.01,VWS V14.01,2013-01-29 17:58:00,
2013-01-29 12:00:00,69.4,60.4,29.57,South,171,0.0,8.0,73,0.00,,,0.01,VWS V14.01,2013-01-29 18:00:00,
2013-01-29 12:08:00,69.6,60.2,29.55,South,185,0.0,7.0,72,0.00,,,0.01,VWS V14.01,2013-01-29 18:08:00,
2013-01-29 12:13:00,69.7,60.3,29.55,SSW,207,3.0,7.0,72,0.00,,,0.01,VWS V14.01,2013-01-29 18:13:00,
2013-01-29 12:18:00,69.8,60.4,29.54,ESE,106,5.0,7.0,72,0.00,,,0.01,VWS V14.01,2013-01-29 18:18:00,
2013-01-29 12:23:00,69.9,60.1,29.54,South,179,5.0,9.0,71,0.00,,,0.01,VWS V14.01,2013-01-29 18:23:00,
2013-01-29 12:28:00,69.9,60.1,29.54,West,261,3.0,10.0,71,0.00,,,0.01,VWS V14.01,2013-01-29 18:28:00,
2013-01-29 12:30:00,69.9,60.1,29.53,South,181,2.0,10.0,71,0.00,,,0.01,VWS V14.01,2013-01-29 18:30:00,
2013-01-29 12:33:00,69.9,60.1,29.53,SSW,207,0.0,9.0,71,0.00,,,0.01,VWS V14.01,2013-01-29 18:33:00,
2013-01-29 12:38:00,69.8,60.0,29.52,SSE,153,2.0,10.0,71,0.00,,,0.01,VWS V14.01,2013-01-29 18:38:00,
2013-01-29 12:43:00,69.7,59.9,29.52,SW,215,10.0,16.0,71,0.00,,,0.01,VWS V14.01,2013-01-29 18:43:00,
2013-01-29 12:49:00,69.6,59.8,29.52,SW,228,5.0,16.0,71,0.00,,,0.01,VWS V14.01,2013-01-29 18:49:00,
2013-01-29 12:54:00,69.5,60.1,29.51,SW,214,7.0,16.0,72,0.00,,,0.01,VWS V14.01,2013-01-29 18:54:00,
2013-01-29 12:59:00,69.5,60.1,29.50,SW,232,3.0,16.0,72,0.00,,,0.01,VWS V14.01,2013-01-29 18:59:00,
2013-01-29 13:00:00,69.6,60.2,29.50,SSE,156,7.0,16.0,72,0.00,,,0.01,VWS V14.01,2013-01-29 19:00:00,
2013-01-29 13:04:00,69.7,60.3,29.49,SE,137,1.0,10.0,72,0.00,,,0.01,VWS V14.01,2013-01-29 19:04:00,
2013-01-29 13:09:00,69.8,60.4,29.49,SW,227,5.0,10.0,72,0.00,,,0.01,VWS V14.01,2013-01-29 19:09:00,
2013-01-29 13:14:00,69.7,59.9,29.49,SE,130,0.0,10.0,71,0.00,,,0.01,VWS V14.01,2013-01-29 19:14:00,
2013-01-29 13:19:00,69.5,60.1,29.49,SW,217,4.0,10.0,72,0.00,,,0.01,VWS V14.01,2013-01-29 19:19:00,
2013-01-29 13:24:00,69.2,59.8,29.49,SW,225,12.0,12.0,72,0.00,,,0.01,VWS V14.01,2013-01-29 19:24:00,
2013-01-29 13:29:00,69.0,60.0,29.49,East,96,5.0,14.0,73,0.00,,,0.01,VWS V14.01,2013-01-29 19:29:00,
2013-01-29 13:30:00,68.9,59.9,29.49,South,173,6.0,14.0,73,0.00,,,0.01,VWS V14.01,2013-01-29 19:30:00,
2013-01-29 13:34:00,68.8,59.8,29.48,SE,125,0.0,6.0,73,0.00,,,0.01,VWS V14.01,2013-01-29 19:34:00,
2013-01-29 13:39:00,68.5,59.1,29.51,NW,324,12.0,14.0,72,0.00,,,0.01,VWS V14.01,2013-01-29 19:39:00,
2013-01-29 13:44:00,66.3,55.4,29.49,North,350,4.0,14.0,68,0.00,,,0.01,VWS V14.01,2013-01-29 19:44:00,
2013-01-29 13:49:00,63.8,54.2,29.48,NW,312,0.0,14.0,71,0.01,,,0.02,VWS V14.01,2013-01-29 19:49:00,
2013-01-29 13:54:00,62.1,54.1,29.47,NE,53,4.0,14.0,75,0.04,,,0.05,VWS V14.01,2013-01-29 19:54:00,
2013-01-29 13:59:00,60.8,53.9,29.47,NW,315,7.0,14.0,78,0.04,,,0.05,VWS V14.01,2013-01-29 19:59:00,
2013-01-29 14:00:00,60.5,54.0,29.48,WNW,301,6.0,14.0,79,0.04,,,0.05,VWS V14.01,2013-01-29 20:00:00,
2013-01-29 14:04:00,59.6,53.4,29.49,West,279,6.0,11.0,80,0.04,,,0.05,VWS V14.01,2013-01-29 20:04:00,
2013-01-29 14:09:00,58.9,53.4,29.46,WNW,286,2.0,11.0,82,0.04,,,0.05,VWS V14.01,2013-01-29 20:09:00,
2013-01-29 14:14:00,58.3,53.5,29.48,WNW,302,5.0,11.0,84,0.04,,,0.05,VWS V14.01,2013-01-29 20:14:00,
2013-01-29 14:19:00,57.9,53.4,29.47,NNE,19,8.0,14.0,85,0.05,,,0.06,VWS V14.01,2013-01-29 20:19:00,
2013-01-29 14:24:00,57.6,53.5,29.49,WSW,253,6.0,14.0,86,0.06,,,0.07,VWS V14.01,2013-01-29 20:24:00,
2013-01-29 14:29:00,57.2,53.4,29.52,WSW,246,0.0,14.0,87,0.18,,,0.19,VWS V14.01,2013-01-29 20:29:00,
2013-01-29 14:30:00,57.2,53.4,29.52,WSW,246,1.0,14.0,87,0.22,,,0.23,VWS V14.01,2013-01-29 20:30:00,
2013-01-29 14:34:00,57.0,53.5,29.50,WNW,298,1.0,5.0,88,0.28,,,0.29,VWS V14.01,2013-01-29 20:34:00,
2013-01-29 14:39:00,56.8,53.3,29.50,WNW,302,0.0,5.0,88,0.29,,,0.30,VWS V14.01,2013-01-29 20:39:00,
2013-01-29 14:44:00,56.6,53.4,29.50,North,5,0.0,5.0,89,0.30,,,0.31,VWS V14.01,2013-01-29 20:44:00,
2013-01-29 14:49:00,56.5,53.3,29.51,WNW,285,6.0,8.0,89,0.31,,,0.32,VWS V14.01,2013-01-29 20:49:00,
2013-01-29 14:54:00,56.4,53.2,29.51,WSW,248,2.0,8.0,89,0.36,,,0.37,VWS V14.01,2013-01-29 20:54:00,
2013-01-29 14:59:00,56.3,53.4,29.51,WNW,286,1.0,8.0,90,0.39,,,0.40,VWS V14.01,2013-01-29 20:59:00,
2013-01-29 15:00:00,56.3,53.4,29.51,WNW,286,0.0,8.0,90,0.39,,,0.40,VWS V14.01,2013-01-29 21:00:00,
2013-01-29 15:04:00,56.2,53.3,29.52,West,262,1.0,5.0,90,0.38,,,0.43,VWS V14.01,2013-01-29 21:04:00,
2013-01-29 15:09:00,56.2,53.3,29.51,ESE,119,0.0,5.0,90,0.42,,,0.47,VWS V14.01,2013-01-29 21:09:00,
2013-01-29 15:14:00,56.2,53.3,29.50,NW,322,0.0,6.0,90,0.45,,,0.50,VWS V14.01,2013-01-29 21:14:00,
2013-01-29 15:19:00,56.1,53.2,29.50,NW,310,0.0,7.0,90,0.46,,,0.51,VWS V14.01,2013-01-29 21:19:00,
2013-01-29 15:24:00,56.0,53.1,29.49,NW,305,18.0,18.0,90,0.48,,,0.53,VWS V14.01,2013-01-29 21:24:00,
2013-01-29 15:29:00,56.0,53.1,29.50,West,275,1.0,18.0,90,0.49,,,0.54,VWS V14.01,2013-01-29 21:29:00,
2013-01-29 15:30:00,56.0,53.1,29.50,West,275,0.0,18.0,90,0.50,,,0.55,VWS V14.01,2013-01-29 21:30:00,
2013-01-29 15:34:00,56.0,53.1,29.50,NNW,348,4.0,6.0,90,0.33,,,0.56,VWS V14.01,2013-01-29 21:34:00,
2013-01-29 15:39:00,56.0,53.4,29.51,West,273,2.0,8.0,91,0.34,,,0.57,VWS V14.01,2013-01-29 21:39:00,
2013-01-29 15:44:00,56.0,53.4,29.52,West,280,4.0,8.0,91,0.36,,,0.59,VWS V14.01,2013-01-29 21:44:00,
2013-01-29 15:49:00,56.0,53.4,29.53,West,276,0.0,8.0,91,0.38,,,0.61,VWS V14.01,2013-01-29 21:49:00,
2013-01-29 15:54:00,56.0,53.4,29.51,WNW,282,5.0,8.0,91,0.40,,,0.63,VWS V14.01,2013-01-29 21:54:00,
2013-01-29 15:59:00,56.0,53.4,29.52,WNW,291,5.0,8.0,91,0.42,,,0.65,VWS V14.01,2013-01-29 21:59:00,
2013-01-29 16:00:00,56.0,53.4,29.52,WNW,291,2.0,8.0,91,0.42,,,0.65,VWS V14.01,2013-01-29 22:00:00,
2013-01-29 16:04:00,56.0,53.4,29.52,WNW,291,0.0,4.0,91,0.25,,,0.65,VWS V14.01,2013-01-29 22:04:00,
2013-01-29 16:09:00,56.0,53.4,29.51,WNW,291,0.0,4.0,91,0.26,,,0.66,VWS V14.01,2013-01-29 22:09:00,
2013-01-29 16:14:00,56.1,53.5,29.51,WNW,291,0.0,4.0,91,0.27,,,0.67,VWS V14.01,2013-01-29 22:14:00,
2013-01-29 16:19:00,56.0,53.4,29.52,WNW,291,2.0,4.0,91,0.27,,,0.67,VWS V14.01,2013-01-29 22:19:00,
2013-01-29 16:24:00,56.0,53.4,29.52,WNW,291,0.0,4.0,91,0.28,,,0.68,VWS V14.01,2013-01-29 22:24:00,
2013-01-29 16:29:00,56.0,53.4,29.52,WNW,291,0.0,4.0,91,0.28,,,0.68,VWS V14.01,2013-01-29 22:29:00,
2013-01-29 16:30:00,56.0,53.4,29.52,WNW,291,0.0,4.0,91,0.28,,,0.68,VWS V14.01,2013-01-29 22:30:00,
2013-01-29 16:34:00,55.9,53.3,29.52,WNW,291,0.0,0.0,91,0.14,,,0.69,VWS V14.01,2013-01-29 22:34:00,
2013-01-29 16:39:00,55.9,53.3,29.51,WNW,291,0.0,0.0,91,0.14,,,0.69,VWS V14.01,2013-01-29 22:39:00,
2013-01-29 16:44:00,55.8,53.2,29.51,WNW,291,0.0,2.0,91,0.15,,,0.70,VWS V14.01,2013-01-29 22:44:00,
2013-01-29 16:49:00,55.8,53.2,29.51,WNW,291,0.0,2.0,91,0.15,,,0.70,VWS V14.01,2013-01-29 22:49:00,
2013-01-29 16:54:00,55.7,53.1,29.51,WNW,291,2.0,2.0,91,0.16,,,0.71,VWS V14.01,2013-01-29 22:54:00,
2013-01-29 16:59:00,55.7,53.1,29.51,WNW,291,0.0,2.0,91,0.16,,,0.71,VWS V14.01,2013-01-29 22:59:00,
2013-01-29 17:00:00,55.7,53.1,29.51,WNW,291,0.0,2.0,91,0.16,,,0.71,VWS V14.01,2013-01-29 23:00:00,
2013-01-29 17:05:00,55.7,53.1,29.51,WNW,291,0.0,0.0,91,0.06,,,0.71,VWS V14.01,2013-01-29 23:05:00,
2013-01-29 17:10:00,55.6,53.0,29.51,WNW,291,0.0,0.0,91,0.06,,,0.71,VWS V14.01,2013-01-29 23:10:00,
2013-01-29 17:15:00,55.4,52.8,29.51,WNW,291,0.0,0.0,91,0.07,,,0.72,VWS V14.01,2013-01-29 23:15:00,
2013-01-29 17:20:00,55.4,52.8,29.51,WNW,291,0.0,0.0,91,0.08,,,0.73,VWS V14.01,2013-01-29 23:20:00,
2013-01-29 17:25:00,55.3,52.7,29.52,WNW,291,0.0,0.0,91,0.09,,,0.74,VWS V14.01,2013-01-29 23:25:00,
2013-01-29 17:30:00,55.1,52.5,29.52,WNW,291,0.0,0.0,91,0.10,,,0.75,VWS V14.01,2013-01-29 23:30:00,
2013-01-29 17:35:00,55.0,52.4,29.51,WNW,291,0.0,0.0,91,0.07,,,0.75,VWS V14.01,2013-01-29 23:35:00,
2013-01-29 17:40:00,54.9,52.3,29.51,WNW,291,0.0,0.0,91,0.08,,,0.76,VWS V14.01,2013-01-29 23:40:00,
2013-01-29 17:45:00,54.8,52.2,29.51,WNW,291,0.0,0.0,91,0.09,,,0.77,VWS V14.01,2013-01-29 23:45:00,
2013-01-29 17:50:00,54.7,52.1,29.50,WNW,291,0.0,0.0,91,0.09,,,0.77,VWS V14.01,2013-01-29 23:50:00,
2013-01-29 17:55:00,54.7,52.1,29.49,WNW,291,0.0,0.0,91,0.09,,,0.77,VWS V14.01,2013-01-29 23:55:00,
2013-01-29 18:00:00,54.7,52.4,29.49,WNW,291,0.0,0.0,92,0.09,,,0.77,VWS V14.01,2013-01-30 00:00:00,
2013-01-29 18:05:00,54.7,52.4,29.49,WNW,291,0.0,0.0,92,0.06,,,0.77,VWS V14.01,2013-01-30 00:05:00,
2013-01-29 18:10:00,54.6,52.3,29.50,WNW,291,0.0,0.0,92,0.06,,,0.77,VWS V14.01,2013-01-30 00:10:00,
2013-01-29 18:15:00,54.4,51.8,29.50,WNW,291,0.0,0.0,91,0.07,,,0.78,VWS V14.01,2013-01-30 00:15:00,
2013-01-29 18:20:00,54.3,52.0,29.49,WNW,291,0.0,0.0,92,0.08,,,0.79,VWS V14.01,2013-01-30 00:20:00,
2013-01-29 18:25:00,54.3,52.0,29.50,WNW,291,0.0,0.0,92,0.08,,,0.79,VWS V14.01,2013-01-30 00:25:00,
2013-01-29 18:30:00,54.1,51.8,29.50,WNW,291,0.0,0.0,92,0.10,,,0.81,VWS V14.01,2013-01-30 00:30:00,
2013-01-29 18:35:00,54.1,51.8,29.50,WNW,291,0.0,2.0,92,0.06,,,0.81,VWS V14.01,2013-01-30 00:35:00,
2013-01-29 18:40:00,54.1,51.8,29.49,WNW,291,0.0,2.0,92,0.06,,,0.81,VWS V14.01,2013-01-30 00:40:00,
2013-01-29 18:45:00,54.2,51.9,29.49,WNW,291,0.0,2.0,92,0.07,,,0.82,VWS V14.01,2013-01-30 00:45:00,
2013-01-29 18:50:00,54.1,51.8,29.50,WNW,291,0.0,2.0,92,0.07,,,0.82,VWS V14.01,2013-01-30 00:50:00,
2013-01-29 18:55:00,54.1,51.8,29.51,WNW,291,0.0,2.0,92,0.07,,,0.82,VWS V14.01,2013-01-30 00:55:00,
2013-01-29 19:00:00,54.0,51.7,29.51,WNW,291,0.0,0.0,92,0.06,,,0.83,VWS V14.01,2013-01-30 01:00:00,
2013-01-29 19:05:00,54.0,51.7,29.49,WNW,291,0.0,0.0,92,0.06,,,0.83,VWS V14.01,2013-01-30 01:05:00,
2013-01-29 19:10:00,54.0,51.7,29.49,WNW,291,2.0,2.0,92,0.07,,,0.84,VWS V14.01,2013-01-30 01:10:00,
2013-01-29 19:15:00,54.0,51.7,29.50,WNW,291,0.0,2.0,92,0.08,,,0.85,VWS V14.01,2013-01-30 01:15:00,
2013-01-29 19:20:00,54.0,51.7,29.50,WNW,291,0.0,4.0,92,0.09,,,0.86,VWS V14.01,2013-01-30 01:20:00,
2013-01-29 19:25:00,53.9,51.6,29.50,WNW,291,2.0,4.0,92,0.10,,,0.87,VWS V14.01,2013-01-30 01:25:00,
2013-01-29 19:30:00,54.0,51.7,29.51,WNW,291,0.0,0.0,92,0.07,,,0.88,VWS V14.01,2013-01-30 01:30:00,
2013-01-29 19:35:00,54.1,52.1,29.51,WNW,291,0.0,2.0,93,0.08,,,0.89,VWS V14.01,2013-01-30 01:35:00,
2013-01-29 19:40:00,54.2,52.2,29.51,WNW,291,0.0,4.0,93,0.10,,,0.91,VWS V14.01,2013-01-30 01:40:00,
2013-01-29 19:45:00,54.3,52.3,29.51,WNW,291,0.0,4.0,93,0.12,,,0.93,VWS V14.01,2013-01-30 01:45:00,
2013-01-29 19:50:00,54.3,52.3,29.51,WNW,291,0.0,4.0,93,0.14,,,0.95,VWS V14.01,2013-01-30 01:50:00,
2013-01-29 19:55:00,54.3,52.3,29.50,WNW,291,0.0,4.0,93,0.15,,,0.96,VWS V14.01,2013-01-30 01:55:00,
2013-01-29 20:00:00,54.3,52.3,29.51,WNW,291,0.0,0.0,93,0.15,,,0.98,VWS V14.01,2013-01-30 02:00:00,
2013-01-29 20:05:00,54.2,52.2,29.51,WNW,291,0.0,0.0,93,0.16,,,0.99,VWS V14.01,2013-01-30 02:05:00,
2013-01-29 20:10:00,54.2,52.2,29.51,WNW,291,0.0,0.0,93,0.17,,,1.00,VWS V14.01,2013-01-30 02:10:00,
2013-01-29 20:15:00,54.1,52.1,29.52,WNW,291,1.0,2.0,93,0.19,,,1.02,VWS V14.01,2013-01-30 02:15:00,
2013-01-29 20:20:00,54.0,52.0,29.52,WNW,291,0.0,2.0,93,0.20,,,1.03,VWS V14.01,2013-01-30 02:20:00,
2013-01-29 20:25:00,54.0,52.0,29.52,WNW,291,0.0,2.0,93,0.21,,,1.04,VWS V14.01,2013-01-30 02:25:00,
2013-01-29 20:30:00,54.0,52.0,29.51,WNW,291,0.0,0.0,93,0.17,,,1.05,VWS V14.01,2013-01-30 02:30:00,
2013-01-29 20:35:00,54.0,52.6,29.50,WNW,291,0.0,0.0,95,0.18,,,1.06,VWS V14.01,2013-01-30 02:35:00,
2013-01-29 20:40:00,54.0,51.7,29.49,WNW,291,0.0,4.0,92,0.19,,,1.07,VWS V14.01,2013-01-30 02:40:00,
2013-01-29 20:45:00,53.9,51.6,29.49,WNW,291,0.0,4.0,92,0.19,,,1.07,VWS V14.01,2013-01-30 02:45:00,
2013-01-29 20:50:00,53.9,51.6,29.49,WNW,291,0.0,4.0,92,0.20,,,1.08,VWS V14.01,2013-01-30 02:50:00,
2013-01-29 20:55:00,53.9,51.6,29.50,WNW,291,0.0,4.0,92,0.21,,,1.09,VWS V14.01,2013-01-30 02:55:00,
2013-01-29 21:00:00,53.8,51.5,29.50,WNW,291,0.0,0.0,92,0.11,,,1.09,VWS V14.01,2013-01-30 03:00:00,
2013-01-29 21:05:00,53.7,51.7,29.51,WNW,291,0.0,2.0,93,0.12,,,1.10,VWS V14.01,2013-01-30 03:05:00,
2013-01-29 21:10:00,53.8,51.8,29.50,WNW,291,0.0,2.0,93,0.12,,,1.10,VWS V14.01,2013-01-30 03:10:00,
2013-01-29 21:16:00,53.6,51.3,29.49,WNW,291,0.0,2.0,92,0.13,,,1.11,VWS V14.01,2013-01-30 03:16:00,
2013-01-29 21:21:00,53.6,51.6,29.49,WNW,291,0.0,2.0,93,0.13,,,1.11,VWS V14.01,2013-01-30 03:21:00,
2013-01-29 21:26:00,53.5,51.5,29.49,WNW,291,0.0,2.0,93,0.14,,,1.12,VWS V14.01,2013-01-30 03:26:00,
2013-01-29 21:30:00,53.5,51.5,29.48,WNW,291,0.0,2.0,93,0.15,,,1.13,VWS V14.01,2013-01-30 03:30:00,
2013-01-29 21:31:00,53.5,51.5,29.48,WNW,291,2.0,2.0,93,0.08,,,1.13,VWS V14.01,2013-01-30 03:31:00,
2013-01-29 21:36:00,53.4,51.4,29.45,WNW,291,0.0,2.0,93,0.09,,,1.14,VWS V14.01,2013-01-30 03:36:00,
2013-01-29 21:41:00,53.3,51.0,29.45,WNW,291,2.0,2.0,92,0.09,,,1.14,VWS V14.01,2013-01-30 03:41:00,
2013-01-29 21:46:00,53.3,51.0,29.45,WNW,291,0.0,4.0,92,0.10,,,1.15,VWS V14.01,2013-01-30 03:46:00,
2013-01-29 21:51:00,53.2,50.9,29.47,WNW,291,0.0,5.0,92,0.10,,,1.15,VWS V14.01,2013-01-30 03:51:00,
2013-01-29 21:56:00,53.2,50.9,29.46,WNW,291,2.0,5.0,92,0.10,,,1.15,VWS V14.01,2013-01-30 03:56:00,
2013-01-29 22:00:00,53.2,50.9,29.45,WNW,291,0.0,5.0,92,0.10,,,1.15,VWS V14.01,2013-01-30 04:00:00,
2013-01-29 22:01:00,53.2,50.9,29.45,WNW,291,0.0,0.0,92,0.06,,,1.15,VWS V14.01,2013-01-30 04:01:00,
2013-01-29 22:06:00,53.1,50.8,29.45,WNW,291,0.0,0.0,92,0.06,,,1.15,VWS V14.01,2013-01-30 04:06:00,
2013-01-29 22:11:00,53.1,50.8,29.45,WNW,291,0.0,0.0,92,0.06,,,1.15,VWS V14.01,2013-01-30 04:11:00,
2013-01-29 22:16:00,53.0,50.7,29.44,WNW,291,0.0,0.0,92,0.06,,,1.15,VWS V14.01,2013-01-30 04:16:00,
2013-01-29 22:21:00,52.9,50.6,29.44,WNW,291,0.0,0.0,92,0.06,,,1.15,VWS V14.01,2013-01-30 04:21:00,
2013-01-29 22:26:00,52.8,50.5,29.41,WNW,291,0.0,2.0,92,0.06,,,1.15,VWS V14.01,2013-01-30 04:26:00,
2013-01-29 22:30:00,52.7,50.5,29.44,WNW,291,0.0,2.0,92,0.06,,,1.15,VWS V14.01,2013-01-30 04:30:00,
2013-01-29 22:31:00,52.7,50.5,29.43,WNW,291,0.0,0.0,92,0.02,,,1.15,VWS V14.01,2013-01-30 04:31:00,
2013-01-29 22:36:00,52.6,50.3,29.43,WNW,291,0.0,0.0,92,0.02,,,1.15,VWS V14.01,2013-01-30 04:36:00,
2013-01-29 22:41:00,52.5,50.2,29.43,WNW,291,0.0,0.0,92,0.02,,,1.15,VWS V14.01,2013-01-30 04:41:00,
2013-01-29 22:46:00,52.4,50.2,29.43,WNW,291,0.0,0.0,92,0.02,,,1.15,VWS V14.01,2013-01-30 04:46:00,
2013-01-29 22:51:00,52.3,50.0,29.43,WNW,291,0.0,0.0,92,0.03,,,1.16,VWS V14.01,2013-01-30 04:51:00,
2013-01-29 22:56:00,52.2,50.0,29.43,WNW,291,0.0,0.0,92,0.03,,,1.16,VWS V14.01,2013-01-30 04:56:00,
2013-01-29 23:00:00,52.1,49.8,29.43,WNW,291,0.0,0.0,92,0.03,,,1.16,VWS V14.01,2013-01-30 05:00:00,
2013-01-29 23:01:00,52.1,49.8,29.43,WNW,291,0.0,0.0,92,0.01,,,1.16,VWS V14.01,2013-01-30 05:01:00,
2013-01-29 23:06:00,51.9,49.7,29.43,WNW,291,0.0,0.0,92,0.02,,,1.17,VWS V14.01,2013-01-30 05:06:00,
2013-01-29 23:11:00,51.8,49.5,29.42,WNW,291,1.0,1.0,92,0.02,,,1.17,VWS V14.01,2013-01-30 05:11:00,
2013-01-29 23:16:00,51.7,49.5,29.40,WNW,291,0.0,1.0,92,0.02,,,1.17,VWS V14.01,2013-01-30 05:16:00,
2013-01-29 23:21:00,51.7,49.5,29.40,WNW,291,1.0,2.0,92,0.02,,,1.17,VWS V14.01,2013-01-30 05:21:00,
2013-01-29 23:26:00,51.6,49.4,29.42,WNW,291,0.0,2.0,92,0.03,,,1.18,VWS V14.01,2013-01-30 05:26:00,
2013-01-29 23:30:00,51.6,49.4,29.42,WNW,291,4.0,4.0,92,0.03,,,1.18,VWS V14.01,2013-01-30 05:30:00,
2013-01-29 23:36:00,51.7,49.8,29.43,WNW,291,1.0,5.0,93,0.04,,,1.19,VWS V14.01,2013-01-30 05:36:00,
2013-01-29 23:41:00,51.7,49.8,29.44,WNW,291,0.0,5.0,93,0.04,,,1.19,VWS V14.01,2013-01-30 05:41:00,
2013-01-29 23:46:00,51.8,49.8,29.44,WNW,291,2.0,5.0,93,0.04,,,1.19,VWS V14.01,2013-01-30 05:46:00,
2013-01-29 23:51:00,51.9,49.9,29.44,WNW,291,2.0,5.0,93,0.04,,,1.19,VWS V14.01,2013-01-30 05:51:00,
2013-01-29 23:56:00,52.0,50.0,29.44,WNW,291,2.0,5.0,93,0.05,,,1.20,VWS V14.01,2013-01-30 05:56:00,